| time (UTC) | temp C | wind direction | speed KPH | gust KPH | rain 1hr cm | rain 24hr cm | rain mn cm | humidity % | barometer mb |
| 20260504044045 | 13 | 80 | 1.6 | 8.0 | 0.00 | 0.00 | 0.00 | 60 | 1013.3 |
| 20260504043544 | 13 | 84 | 3.2 | 8.0 | 0.00 | 0.00 | 0.00 | 60 | 1013.4 |
| 20260504043044 | 13 | 76 | 1.6 | 4.8 | 0.00 | 0.00 | 0.00 | 60 | 1013.3 |
| 20260504042547 | 13 | 77 | 1.6 | 8.0 | 0.00 | 0.00 | 0.00 | 61 | 1013.2 |
| 20260504042048 | 13 | 55 | 1.6 | 8.0 | 0.00 | 0.00 | 0.00 | 61 | 1013.1 |
| 20260504041545 | 13 | 86 | 3.2 | 6.4 | 0.00 | 0.00 | 0.00 | 61 | 1013.1 |
| 20260504041041 | 13 | 81 | 3.2 | 9.7 | 0.00 | 0.00 | 0.00 | 61 | 1013.1 |
| 20260504040539 | 13 | 76 | 3.2 | 11.3 | 0.00 | 0.00 | 0.00 | 61 | 1013.1 |
| 20260504040038 | 13 | 76 | 3.2 | 9.7 | 0.00 | 0.00 | 0.00 | 61 | 1013.2 |
| 20260504035540 | 13 | 88 | 3.2 | 8.0 | 0.00 | 0.00 | 0.00 | 62 | 1013.3 |
| 20260504035036 | 13 | 82 | 3.2 | 8.0 | 0.00 | 0.00 | 0.00 | 62 | 1013.2 |
| 20260504034540 | 13 | 81 | 3.2 | 9.7 | 0.00 | 0.00 | 0.00 | 61 | 1013.3 |
| 20260504034034 | 13 | 90 | 3.2 | 9.7 | 0.00 | 0.00 | 0.00 | 61 | 1013.3 |
| 20260504033535 | 13 | 74 | 1.6 | 9.7 | 0.00 | 0.00 | 0.00 | 61 | 1013.5 |
| 20260504033034 | 13 | 99 | 1.6 | 9.7 | 0.00 | 0.00 | 0.00 | 61 | 1013.6 |
| 20260504032535 | 13 | 69 | 1.6 | 8.0 | 0.00 | 0.00 | 0.00 | 61 | 1013.7 |
| 20260504032033 | 13 | 52 | 1.6 | 4.8 | 0.00 | 0.00 | 0.00 | 61 | 1013.7 |
| 20260504031533 | 13 | 88 | 0.0 | 4.8 | 0.00 | 0.00 | 0.00 | 60 | 1013.8 |
| 20260504031032 | 13 | 79 | 0.0 | 6.4 | 0.00 | 0.00 | 0.00 | 61 | 1013.8 |
| 20260504030531 | 13 | 78 | 1.6 | 6.4 | 0.00 | 0.00 | 0.00 | 60 | 1013.9 |
| 20260504030039 | 13 | 53 | 1.6 | 4.8 | 0.00 | 0.00 | 0.00 | 60 | 1013.9 |
| 20260504025531 | 13 | 94 | 0.0 | 6.4 | 0.00 | 0.00 | 0.00 | 60 | 1013.9 |
| 20260504025032 | 13 | 95 | 3.2 | 6.4 | 0.00 | 0.00 | 0.00 | 60 | 1013.9 |
| 20260504024530 | 13 | 67 | 1.6 | 9.7 | 0.00 | 0.00 | 0.00 | 59 | 1013.9 |
| 20260504024034 | 13 | 81 | 3.2 | 9.7 | 0.00 | 0.00 | 0.00 | 59 | 1013.6 |
| 20260504023529 | 13 | 82 | 3.2 | 9.7 | 0.00 | 0.00 | 0.00 | 59 | 1013.6 |
| 20260504023031 | 13 | 90 | 3.2 | 9.7 | 0.00 | 0.00 | 0.00 | 59 | 1013.7 |
| 20260504022529 | 13 | 59 | 3.2 | 9.7 | 0.00 | 0.00 | 0.00 | 60 | 1013.8 |
| 20260504022028 | 13 | 91 | 3.2 | 9.7 | 0.00 | 0.00 | 0.00 | 60 | 1013.6 |
| 20260504021528 | 13 | 93 | 3.2 | 6.4 | 0.00 | 0.00 | 0.00 | 60 | 1013.7 |
| 20260504021029 | 13 | 88 | 1.6 | 6.4 | 0.00 | 0.00 | 0.00 | 60 | 1013.7 |
| 20260504020526 | 14 | 83 | 1.6 | 6.4 | 0.00 | 0.00 | 0.00 | 60 | 1013.7 |
| 20260504020026 | 14 | 92 | 1.6 | 9.7 | 0.00 | 0.00 | 0.00 | 60 | 1013.6 |
| 20260504015526 | 14 | 92 | 3.2 | 9.7 | 0.00 | 0.00 | 0.00 | 60 | 1013.7 |
| 20260504015030 | 14 | 84 | 1.6 | 6.4 | 0.00 | 0.00 | 0.00 | 60 | 1013.6 |
| 20260504014526 | 14 | 80 | 0.0 | 4.8 | 0.00 | 0.00 | 0.00 | 60 | 1013.6 |
| 20260504014028 | 14 | 76 | 1.6 | 4.8 | 0.00 | 0.00 | 0.00 | 59 | 1013.6 |
| 20260504013528 | 14 | 84 | 0.0 | 6.4 | 0.00 | 0.00 | 0.00 | 60 | 1013.6 |
| 20260504013025 | 14 | 85 | 3.2 | 6.4 | 0.00 | 0.00 | 0.00 | 59 | 1013.7 |
| 20260504012525 | 14 | 86 | 0.0 | 6.4 | 0.00 | 0.00 | 0.00 | 60 | 1013.6 |
| 20260504012023 | 14 | 86 | 1.6 | 6.4 | 0.00 | 0.00 | 0.00 | 59 | 1013.6 |
| 20260504011523 | 14 | 76 | 0.0 | 6.4 | 0.00 | 0.00 | 0.00 | 60 | 1013.5 |
| 20260504011023 | 14 | 82 | 1.6 | 6.4 | 0.00 | 0.00 | 0.00 | 59 | 1013.6 |
| 20260504010523 | 14 | 96 | 1.6 | 4.8 | 0.00 | 0.00 | 0.00 | 59 | 1013.5 |
| 20260504010022 | 14 | 150 | 0.0 | 3.2 | 0.00 | 0.00 | 0.00 | 59 | 1013.5 |
| 20260504005525 | 14 | 150 | 0.0 | 8.0 | 0.00 | 0.00 | 0.00 | 59 | 1013.4 |
| 20260504005020 | 14 | 151 | 0.0 | 11.3 | 0.00 | 0.00 | 0.00 | 59 | 1013.4 |
| 20260504004523 | 15 | 142 | 1.6 | 11.3 | 0.00 | 0.00 | 0.00 | 58 | 1013.4 |
| 20260504004019 | 15 | 46 | 0.0 | 8.0 | 0.00 | 0.00 | 0.00 | 58 | 1013.4 |
| 20260504003519 | 15 | 40 | 3.2 | 8.0 | 0.00 | 0.00 | 0.00 | 58 | 1013.3 |
| 20260504003019 | 15 | 278 | 1.6 | 8.0 | 0.00 | 0.00 | 0.00 | 58 | 1013.4 |
| 20260504002518 | 15 | 242 | 3.2 | 8.0 | 0.00 | 0.00 | 0.00 | 58 | 1013.4 |
| 20260504002017 | 15 | 277 | 0.0 | 4.8 | 0.00 | 0.00 | 0.00 | 58 | 1013.4 |
| 20260504001517 | 15 | 277 | 0.0 | 6.4 | 0.00 | 0.00 | 0.00 | 58 | 1013.3 |
| 20260504001015 | 15 | 271 | 1.6 | 8.0 | 0.00 | 0.00 | 0.00 | 57 | 1013.2 |
| 20260504000515 | 15 | 112 | 1.6 | 14.5 | 0.00 | 0.00 | 0.00 | 57 | 1013.2 |
| 20260504000013 | 15 | 80 | 4.8 | 24.1 | 0.00 | 0.00 | 0.00 | 56 | 1013.4 |
| 20260503235512 | 15 | 80 | 8.0 | 24.1 | 0.00 | 0.00 | 0.00 | 56 | 1013.1 |
| 20260503235013 | 15 | 47 | 6.4 | 14.5 | 0.00 | 0.00 | 0.00 | 56 | 1013.4 |
| 20260503234525 | 15 | 88 | 4.8 | 16.1 | 0.00 | 0.00 | 0.00 | 56 | 1013.3 |
| 20260503234011 | 15 | 94 | 4.8 | 17.7 | 0.00 | 0.00 | 0.00 | 56 | 1013.3 |
| 20260503233510 | 15 | 162 | 4.8 | 16.1 | 0.00 | 0.00 | 0.00 | 56 | 1013.3 |
| 20260503233010 | 15 | 55 | 6.4 | 16.1 | 0.00 | 0.00 | 0.00 | 56 | 1013.1 |
| 20260503232509 | 15 | 80 | 6.4 | 17.7 | 0.00 | 0.00 | 0.00 | 56 | 1013.3 |
| 20260503232009 | 15 | 86 | 4.8 | 14.5 | 0.00 | 0.00 | 0.00 | 56 | 1013.2 |
| 20260503231508 | 16 | 105 | 1.6 | 9.7 | 0.00 | 0.00 | 0.00 | 56 | 1013.3 |
| 20260503231013 | 16 | 281 | 1.6 | 9.7 | 0.00 | 0.00 | 0.00 | 56 | 1013.2 |
| 20260503230512 | 16 | 43 | 1.6 | 12.9 | 0.00 | 0.00 | 0.00 | 55 | 1013.2 |
| 20260503230008 | 16 | 5 | 6.4 | 12.9 | 0.00 | 0.00 | 0.00 | 56 | 1013.3 |
| 20260503225506 | 16 | 161 | 1.6 | 12.9 | 0.00 | 0.00 | 0.00 | 55 | 1013.3 |
| 20260503225006 | 16 | 360 | 3.2 | 12.9 | 0.00 | 0.00 | 0.00 | 55 | 1013.3 |
| 20260503224507 | 16 | 106 | 4.8 | 12.9 | 0.00 | 0.00 | 0.00 | 55 | 1013.3 |
| 20260503224005 | 16 | 13 | 3.2 | 14.5 | 0.00 | 0.00 | 0.00 | 55 | 1013.1 |
| 20260503223505 | 16 | 32 | 4.8 | 16.1 | 0.00 | 0.00 | 0.00 | 55 | 1013.2 |
| 20260503223004 | 16 | 61 | 3.2 | 16.1 | 0.00 | 0.00 | 0.00 | 55 | 1013.0 |
| 20260503222505 | 16 | 78 | 4.8 | 9.7 | 0.00 | 0.00 | 0.00 | 55 | 1013.1 |
| 20260503222002 | 16 | 190 | 3.2 | 16.1 | 0.00 | 0.00 | 0.00 | 54 | 1012.8 |
| 20260503221503 | 16 | 71 | 6.4 | 16.1 | 0.00 | 0.00 | 0.00 | 54 | 1013.0 |
| 20260503221002 | 16 | 88 | 4.8 | 16.1 | 0.00 | 0.00 | 0.00 | 54 | 1013.0 |
| 20260503220502 | 16 | 87 | 3.2 | 16.1 | 0.00 | 0.00 | 0.00 | 54 | 1013.0 |
| 20260503220104 | 16 | 94 | 6.4 | 12.9 | 0.00 | 0.00 | 0.00 | 54 | 1013.0 |
| 20260503215559 | 16 | 28 | 4.8 | 16.1 | 0.00 | 0.00 | 0.00 | 53 | 1013.0 |
| 20260503215100 | 16 | 313 | 3.2 | 16.1 | 0.00 | 0.00 | 0.00 | 53 | 1013.0 |
| 20260503214602 | 16 | 355 | 3.2 | 9.7 | 0.00 | 0.00 | 0.00 | 53 | 1013.0 |
| 20260503214104 | 16 | 5 | 3.2 | 16.1 | 0.00 | 0.00 | 0.00 | 53 | 1013.0 |
| 20260503213603 | 16 | 106 | 6.4 | 16.1 | 0.00 | 0.00 | 0.00 | 53 | 1013.1 |
| 20260503213112 | 16 | 63 | 3.2 | 11.3 | 0.00 | 0.00 | 0.00 | 53 | 1013.0 |
| 20260503212600 | 16 | 94 | 4.8 | 8.0 | 0.00 | 0.00 | 0.00 | 53 | 1013.0 |
| 20260503212059 | 17 | 78 | 3.2 | 17.7 | 0.00 | 0.00 | 0.00 | 53 | 1013.1 |
| 20260503211558 | 17 | 88 | 4.8 | 17.7 | 0.00 | 0.00 | 0.00 | 52 | 1013.0 |
| 20260503211058 | 17 | 360 | 4.8 | 12.9 | 0.00 | 0.00 | 0.00 | 52 | 1013.0 |
| 20260503210558 | 17 | 254 | 1.6 | 14.5 | 0.00 | 0.00 | 0.00 | 52 | 1013.0 |
| 20260503210105 | 17 | 65 | 6.4 | 14.5 | 0.00 | 0.00 | 0.00 | 52 | 1012.9 |
| 20260503205559 | 17 | 13 | 3.2 | 12.9 | 0.00 | 0.00 | 0.00 | 52 | 1013.0 |
| 20260503205100 | 17 | 65 | 6.4 | 19.3 | 0.00 | 0.00 | 0.00 | 52 | 1012.8 |
| 20260503204558 | 17 | 42 | 6.4 | 19.3 | 0.00 | 0.00 | 0.00 | 52 | 1012.9 |
| 20260503204200 | 17 | 337 | 3.2 | 14.5 | 0.00 | 0.00 | 0.00 | 52 | 1013.0 |
| 20260503203558 | 17 | 19 | 3.2 | 14.5 | 0.00 | 0.00 | 0.00 | 52 | 1012.9 |
| 20260503203103 | 17 | 82 | 4.8 | 12.9 | 0.00 | 0.00 | 0.00 | 52 | 1012.9 |
| 20260503202558 | 17 | 264 | 1.6 | 9.7 | 0.00 | 0.00 | 0.00 | 51 | 1013.0 |
| 20260503202058 | 17 | 24 | 1.6 | 9.7 | 0.00 | 0.00 | 0.00 | 51 | 1012.9 |
| 20260503201557 | 17 | 315 | 3.2 | 14.5 | 0.00 | 0.00 | 0.00 | 51 | 1013.0 |
| 20260503201056 | 17 | 5 | 3.2 | 12.9 | 0.00 | 0.00 | 0.00 | 51 | 1012.9 |
| 20260503200559 | 17 | 74 | 3.2 | 12.9 | 0.00 | 0.00 | 0.00 | 51 | 1012.9 |
| 20260503200058 | 17 | 51 | 4.8 | 12.9 | 0.00 | 0.00 | 0.00 | 51 | 1012.9 |
| 20260503195555 | 18 | 42 | 4.8 | 20.9 | 0.00 | 0.00 | 0.00 | 50 | 1013.0 |
| 20260503195055 | 18 | 178 | 4.8 | 20.9 | 0.00 | 0.00 | 0.00 | 50 | 1012.9 |
| 20260503194555 | 18 | 311 | 6.4 | 14.5 | 0.00 | 0.00 | 0.00 | 50 | 1013.0 |
| 20260503194058 | 18 | 256 | 4.8 | 17.7 | 0.00 | 0.00 | 0.00 | 50 | 1013.0 |
| 20260503193555 | 18 | 109 | 6.4 | 17.7 | 0.00 | 0.00 | 0.00 | 49 | 1012.9 |
| 20260503193103 | 18 | 69 | 4.8 | 12.9 | 0.00 | 0.00 | 0.00 | 49 | 1012.9 |
| 20260503192554 | 18 | 17 | 4.8 | 12.9 | 0.00 | 0.00 | 0.00 | 49 | 1013.2 |
| 20260503192053 | 18 | 330 | 4.8 | 12.9 | 0.00 | 0.00 | 0.00 | 49 | 1012.8 |
| 20260503191556 | 18 | 294 | 3.2 | 11.3 | 0.00 | 0.00 | 0.00 | 49 | 1012.9 |
| 20260503191054 | 18 | 204 | 3.2 | 9.7 | 0.00 | 0.00 | 0.00 | 48 | 1012.8 |
| 20260503190553 | 18 | 275 | 3.2 | 11.3 | 0.00 | 0.00 | 0.00 | 48 | 1012.8 |
| 20260503190055 | 18 | 328 | 3.2 | 8.0 | 0.00 | 0.00 | 0.00 | 48 | 1012.7 |
| 20260503185552 | 18 | 67 | 3.2 | 9.7 | 0.00 | 0.00 | 0.00 | 48 | 1012.8 |
| 20260503185055 | 18 | 338 | 3.2 | 9.7 | 0.00 | 0.00 | 0.00 | 47 | 1012.8 |
| 20260503184607 | 18 | 10 | 3.2 | 8.0 | 0.00 | 0.00 | 0.00 | 47 | 1012.8 |
| 20260503184051 | 18 | 271 | 3.2 | 6.4 | 0.00 | 0.00 | 0.00 | 47 | 1012.8 |
| 20260503183553 | 19 | 313 | 3.2 | 8.0 | 0.00 | 0.00 | 0.00 | 47 | 1012.7 |
| 20260503183103 | 19 | 34 | 3.2 | 8.0 | 0.00 | 0.00 | 0.00 | 46 | 1012.5 |
| 20260503182554 | 19 | 32 | 1.6 | 6.4 | 0.00 | 0.00 | 0.00 | 46 | 1012.7 |
| 20260503182053 | 19 | 34 | 3.2 | 6.4 | 0.00 | 0.00 | 0.00 | 46 | 1012.5 |
| 20260503181603 | 20 | 360 | 1.6 | 8.0 | 0.00 | 0.00 | 0.00 | 45 | 1012.5 |
| 20260503181051 | 20 | 80 | 3.2 | 8.0 | 0.00 | 0.00 | 0.00 | 45 | 1012.6 |
| 20260503180551 | 20 | 11 | 1.6 | 6.4 | 0.00 | 0.00 | 0.00 | 44 | 1012.5 |
| 20260503180051 | 20 | 72 | 1.6 | 4.8 | 0.00 | 0.00 | 0.00 | 44 | 1012.6 |
| 20260503175549 | 20 | 76 | 1.6 | 6.4 | 0.00 | 0.00 | 0.00 | 44 | 1012.6 |
| 20260503175054 | 20 | 34 | 1.6 | 6.4 | 0.00 | 0.00 | 0.00 | 43 | 1012.6 |
| 20260503174549 | 20 | 325 | 1.6 | 4.8 | 0.00 | 0.00 | 0.00 | 43 | 1012.6 |
| 20260503174050 | 20 | 17 | 1.6 | 9.7 | 0.00 | 0.00 | 0.00 | 44 | 1012.6 |
| 20260503173550 | 20 | 246 | 1.6 | 9.7 | 0.00 | 0.00 | 0.00 | 42 | 1012.6 |
| 20260503173058 | 20 | 331 | 1.6 | 4.8 | 0.00 | 0.00 | 0.00 | 44 | 1012.6 |
| 20260503172550 | 21 | 40 | 1.6 | 4.8 | 0.00 | 0.00 | 0.00 | 41 | 1012.6 |
| 20260503172048 | 21 | 315 | 0.0 | 4.8 | 0.00 | 0.00 | 0.00 | 42 | 1012.5 |
| 20260503171548 | 21 | 271 | 0.0 | 4.8 | 0.00 | 0.00 | 0.00 | 40 | 1012.6 |
| 20260503171047 | 21 | 152 | 0.0 | 3.2 | 0.00 | 0.00 | 0.00 | 41 | 1012.7 |
| 20260503170547 | 21 | 152 | 0.0 | 4.8 | 0.00 | 0.00 | 0.00 | 40 | 1012.7 |
| 20260503150539 | 22 | 96 | 4.8 | 17.7 | 0.00 | 0.00 | 0.00 | 31 | 1013.4 |
| 20260503131027 | 22 | 180 | 6.4 | 17.7 | 0.00 | 0.00 | 0.00 | 38 | 1014.9 |
| 20260503130525 | 22 | 156 | 4.8 | 14.5 | 0.00 | 0.00 | 0.00 | 41 | 1014.9 |
| 20260503110515 | 21 | 229 | 8.0 | 16.1 | 0.00 | 0.00 | 0.00 | 40 | 1016.1 |
| 20260503081604 | 17 | 171 | 4.8 | 16.1 | 0.00 | 0.00 | 0.00 | 51 | 1017.4 |
| 20260503081039 | 17 | 134 | 4.8 | 12.9 | 0.00 | 0.00 | 0.00 | 50 | 1017.4 |
| 20260503080539 | 17 | 97 | 4.8 | 22.5 | 0.00 | 0.00 | 0.00 | 48 | 1017.5 |
| 20260503072530 | 16 | 132 | 3.2 | 11.3 | 0.00 | 0.00 | 0.00 | 50 | 1017.5 |
| 20260503072031 | 16 | 130 | 1.6 | 12.9 | 0.00 | 0.00 | 0.00 | 50 | 1017.5 |
| 20260503071530 | 16 | 144 | 4.8 | 12.9 | 0.00 | 0.00 | 0.00 | 50 | 1017.4 |
| 20260503071028 | 16 | 88 | 1.6 | 9.7 | 0.00 | 0.00 | 0.00 | 52 | 1017.4 |
| 20260503070527 | 15 | 96 | 1.6 | 12.9 | 0.00 | 0.00 | 0.00 | 52 | 1017.4 |
| 20260503055014 | 13 | 80 | 4.8 | 12.9 | 0.00 | 0.00 | 0.00 | 55 | 1017.4 |
| 20260503054516 | 13 | 82 | 3.2 | 12.9 | 0.00 | 0.00 | 0.00 | 56 | 1017.3 |
| 20260503054013 | 13 | 80 | 6.4 | 12.9 | 0.00 | 0.00 | 0.00 | 56 | 1017.4 |
| 20260503053512 | 13 | 81 | 6.4 | 12.9 | 0.00 | 0.00 | 0.00 | 56 | 1017.3 |
| 20260503053014 | 13 | 87 | 3.2 | 11.3 | 0.00 | 0.00 | 0.00 | 57 | 1017.3 |
| 20260503052512 | 12 | 86 | 4.8 | 9.7 | 0.00 | 0.00 | 0.00 | 57 | 1017.3 |
| 20260503052011 | 12 | 74 | 4.8 | 14.5 | 0.00 | 0.00 | 0.00 | 57 | 1017.4 |
| 20260503051511 | 12 | 76 | 4.8 | 14.5 | 0.00 | 0.00 | 0.00 | 56 | 1017.3 |
| 20260503051010 | 12 | 53 | 6.4 | 11.3 | 0.00 | 0.00 | 0.00 | 57 | 1017.3 |
| 20260503050509 | 12 | 67 | 4.8 | 11.3 | 0.00 | 0.00 | 0.00 | 57 | 1017.4 |
| 20260503050025 | 12 | 86 | 4.8 | 14.5 | 0.00 | 0.00 | 0.00 | 57 | 1017.4 |
| 20260503045508 | 12 | 69 | 8.0 | 14.5 | 0.00 | 0.00 | 0.00 | 57 | 1017.3 |
| 20260503045012 | 12 | 84 | 6.4 | 11.3 | 0.00 | 0.00 | 0.00 | 57 | 1017.3 |
| 20260503044506 | 12 | 76 | 6.4 | 11.3 | 0.00 | 0.00 | 0.00 | 57 | 1017.4 |